星链-37556(STARLINK-37556)

导读

STARLINK-37556(NORAD编号69660)是SpaceX星链(Starlink)低轨宽带通信星座的组网卫星之一,隶属于星链规模化部署批次,由猎鹰9号火箭发射入轨,当前处于约550公里高度的近地轨道正常运行状态。该卫星为平板式量产小卫星,重约227-260kg,搭载Ku/Ka波段通信载荷与光学星间链路,采用氪工质霍尔推进器,具备自主避撞能力,设计寿命5-7年,主要为全球提供高速低延迟互联网接入服务,末期将主动离轨再入销毁以减少空间碎片。

Basic Information
目录编号:
69660
目录名称:
STARLINK-37556
国际标识:
2026-143M
轨道中心:
EARTH
卫星名称:
星链-37556
卫星全名:
星链-37556(STARLINK-37556)
卫星状态:
在轨 (已飞行75 天)
发射日期:
2026-06-21 UTC
国别 :
美国 (US)
星等 :
--
Orbit Information
数据来源 国际轨道数据 AOE轨道数据
星历时间 2026-09-03T21:45:40+0800
1天前
查看轨道信息
2026-09-04T00:00:00+0800
22小时前
查看轨道信息
半长轴 6843.683km 6843.73km
偏心率 0.0001128 0.0001505
轨道倾角 97.283° 97.284°
近地点辐角 96.605° 100.732°
升交点赤经 289.931° 290.024°
平近点角 263.533° 54.006°
近地点 464.774km 464.563km
远地点 466.318km 466.623km
周期 93.906分钟 93.907分钟
每日圈数 15.334443 15.334285
Detailed Information
固有亮度:
5
最大亮度:
2.5
卫星平台:
Starlink V1.0
覆盖范围:
全球
运营商:
太空探索技术公司
运营商所在国:
美国
制造商(研发单位):
太空探索技术公司
制造商所在国:
美国
使用方式:
暂无
Satellite Introduction
Starlink 计划是 SpaceX 推出的全球卫星互联网项目,通过发射低轨道卫星,为全球尤其是偏远地区提供高速、低延迟的互联网服务。自 2019 年起,Starlink 已部署数千颗卫星,旨在缩小全球数字鸿沟,推动互联网普及。该项目还为军事、航空等行业提供通信支持,带来广泛经济效益。
2D Orbit Map
3D Orbit Map
Orbit Altitude Analysis Chart
Orbit Inclination Analysis Chart
Orbit Comprehensive Analysis Chart
View Comprehensive Chart
Conjunction Data List
Event ID Objects TCA Miss Dist (km) Collision Risk Probability Collision Risk Index (CRI) Action
CDM_260901-215903-876306-966021
CP5 (38763)
2026-09-01T
21:59:58+0000
0.608 km
远距离
6.823735E-5 中风险 0.72
CDM_260906-010106-442206-966021
2026-09-06T
01:01:04+0000
1.416 km
极远距离
4.815846E-6 低风险 0.49
CDM_260906-212605-328206-966021
2026-09-06T
21:26:49+0000
2.426 km
极远距离
1.807023E-6 低风险 0.4
CDM_260905-115105-236406-966022
2026-09-05T
11:51:20+0000
2.649 km
极远距离
1.582258E-6 低风险 0.39
CDM_260906-190505-328206-966021
2026-09-06T
19:05:55+0000
2.851 km
极远距离
1.394041E-6 低风险 0.38
CDM_260906-080406-442206-966021
2026-09-06T
08:04:00+0000
2.492 km
极远距离
1.118435E-6 低风险 0.36